TimeMST,TemperatureF,Dew PointF,Humidity,Sea Level PressureIn,VisibilityMPH,Wind Direction,Wind SpeedMPH,Gust SpeedMPH,PrecipitationIn,Events,Conditions,WindDirDegrees,DateUTC
12:58 AM,29.8,13.8,51,29.98,10.0,North,5.8,-,N/A,,Clear,10,2013-11-09 07:58:00
1:58 AM,29.8,14.7,53,29.99,10.0,North,9.2,-,N/A,,Clear,360,2013-11-09 08:58:00
2:58 AM,28.4,15.1,57,30.01,10.0,NNE,6.9,-,N/A,,Clear,20,2013-11-09 09:58:00
3:58 AM,28.6,15.3,58,30.05,10.0,North,8.1,-,N/A,,Clear,10,2013-11-09 10:58:00
4:58 AM,30.0,16.3,57,30.09,10.0,North,10.4,-,N/A,,Clear,10,2013-11-09 11:58:00
5:58 AM,30.4,16.9,57,30.15,10.0,North,10.4,-,N/A,,Clear,10,2013-11-09 12:58:00
6:58 AM,29.3,17.6,62,30.19,10.0,North,8.1,-,N/A,,Clear,10,2013-11-09 13:58:00
7:58 AM,37.2,19.4,49,30.15,10.0,North,4.6,-,N/A,,Clear,10,2013-11-09 14:58:00
8:58 AM,46.2,21.4,37,30.16,10.0,Variable,2.3,-,N/A,,Clear,0,2013-11-09 15:58:00
9:58 AM,52.0,20.1,29,30.12,10.0,SE,6.9,-,N/A,,Clear,140,2013-11-09 16:58:00
10:58 AM,54.7,20.5,26,30.12,10.0,SSE,13.8,-,N/A,,Clear,150,2013-11-09 17:58:00
11:58 AM,54.9,21.2,27,30.11,10.0,SE,10.4,-,N/A,,Clear,140,2013-11-09 18:58:00
12:58 PM,56.3,21.2,26,30.12,10.0,SE,12.7,18.4,N/A,,Clear,140,2013-11-09 19:58:00
1:58 PM,56.7,22.5,27,30.12,10.0,SE,10.4,-,N/A,,Clear,130,2013-11-09 20:58:00
2:58 PM,56.1,21.9,27,30.15,10.0,SSE,13.8,-,N/A,,Clear,150,2013-11-09 21:58:00
3:58 PM,53.8,21.7,29,30.18,10.0,SSE,10.4,-,N/A,,Clear,160,2013-11-09 22:58:00
4:58 PM,49.3,20.8,33,30.22,10.0,SE,9.2,-,N/A,,Clear,140,2013-11-09 23:58:00
5:58 PM,46.0,20.8,37,30.25,10.0,South,3.5,-,N/A,,Clear,180,2013-11-10 00:58:00
6:58 PM,43.0,21.6,43,30.29,10.0,South,4.6,-,N/A,,Clear,180,2013-11-10 01:58:00
7:58 PM,43.0,22.1,44,30.26,10.0,ESE,1.2,-,N/A,,Clear,110,2013-11-10 02:58:00
8:58 PM,41.7,22.5,46,30.24,10.0,Calm,Calm,-,N/A,,Clear,0,2013-11-10 03:58:00
9:58 PM,30.6,20.3,66,30.25,10.0,NNW,6.9,-,N/A,,Clear,330,2013-11-10 04:58:00
10:58 PM,30.9,20.8,66,30.24,10.0,North,6.9,-,N/A,,Clear,350,2013-11-10 05:58:00
11:58 PM,29.5,20.7,70,30.24,10.0,NNW,6.9,-,N/A,,Clear,340,2013-11-10 06:58:00